Flag for Norway Weather past 2 weeks in Elverum, Norway

Now
44 °F

Quite cool.


Feels Like: 40 °F
Forecast: 35 / 53 °F
Wind: 7 mph from North

Location: Haugedalshogda

Current Time: Sep 21, 2014 at 11:15:12 PM

Latest Report: Sep 21, 2014 at 10:00 PM


Visibility: N/A

Pressure: 29.91 "Hg

Humidity: 65%

Dew point: 33 °F

Location of ElverumLocation

Historic Weather in Elverum — Graph

°F

Elverum temperature yesterday

Maximum temperature yesterday: 56 °F (at 3:00 PM)
Minimum temperature yesterday: 37 °F (at 12:00 AM)
Average temperature yesterday: 45 °F

Past Weeks' High & Low Weather Summary

 TemperatureHumidityPressure
High69 °F (Sep 14, 3:00 PM)96% (Sep 19, 9:00 AM)30.56 "Hg (Sep 19, 9:00 AM)
Low32 °F (Sep 13, 6:00 AM)40% (Sep 14, 3:00 PM)29.79 "Hg (Sep 9, 7:00 AM)
Average49 °F83%30.21 "Hg
* Reported Sep 6 10:00 PM — Sep 21 10:00 PM, Elverum, Weather by CustomWeather, © 2014

Note: Actual official high and low records may vary slightly from our data, if they occured in-between our weather recording intervals... More about our weather records

Advertising

Elverum weather history for previous 24 hours

 ConditionsComfort  
Time TempWeatherWind HumidityBarometerVisibility
10:00 PM
Sep 21
44 °FQuite cool.7 mph65%29.91 "HgN/A
9:00 PM44 °FQuite cool.7 mph64%29.91 "HgN/A
8:00 PM46 °FCool.10 mph61%29.90 "HgN/A
7:00 PM47 °FCool.7 mph58%29.90 "HgN/A
6:00 PM49 °FCool.7 mph55%29.88 "HgN/A
5:00 PM53 °FCool.7 mph51%29.85 "HgN/A
4:00 PM54 °FCool.6 mph55%29.84 "HgN/A
3:00 PM53 °FCool.7 mph65%29.85 "HgN/A
2:00 PM54 °FCool.5 mph72%29.84 "HgN/A
1:00 PM54 °FCool.3 mph82%29.84 "HgN/A
12:00 PM54 °FCool.2 mph84%29.83 "HgN/A
11:00 AM51 °FCool.2 mph88%29.84 "HgN/A
10:00 AM51 °FCool.2 mph90%29.85 "HgN/A
9:00 AM48 °FCool.1 mph94%29.85 "HgN/A
8:00 AM48 °FCool.1 mph94%29.85 "HgN/A
7:00 AM48 °FCool.2 mph94%29.85 "HgN/A
6:00 AM48 °FCool.No wind94%29.85 "HgN/A
5:00 AM49 °FCool.1 mph94%29.85 "HgN/A
4:00 AM49 °FCool.2 mph94%29.84 "HgN/A
3:00 AM49 °FCool.3 mph94%29.84 "HgN/A
2:00 AM49 °FCool.1 mph94%29.84 "HgN/A
1:00 AM49 °FCool.1 mph94%29.85 "HgN/A
12:00 AM49 °FCool.1 mph94%29.85 "HgN/A
11:00 PM
Sep 20
49 °FCool.1 mph94%29.85 "HgN/A
Weather by CustomWeather, © 2014

See weather overviewHow to use our weather pages